sat.trackr.live / text

‹ back to catalog

STARLINK-11515 [DTC]

NORAD 62556 · 2025-006C

PAYLOAD ACTIVE UNKNOWN

§ Identity

Operator
Country
US
Launch date
2025-01-10
Launch site
AFETR
Launch vehicle
Mass (kg)
RCS (m²)

Purposes: comms

External: N2YO · Heavens-Above · Gunter

§ Orbital elements

Epoch: 2026-05-25T01:59:40.289280Z

Period
91.67 min
Inclination
43.0011°
Eccentricity
0.0001938
Mean motion
15.70872737 rev/d
Perigee alt
355.1 km
Apogee alt
357.7 km
Semi-major
6,734.5 km
B*
1.5769e-3
RAAN
39.7307°
Arg perigee
263.3914°
Mean anomaly
96.6733°
Rev number
7,861

§ Raw data

STARLINK-11515 [DTC]1 62556U 25006C   26145.08310520  .00207306  00000+0  15769-2 0  99912 62556  43.0011  39.7307 0001938 263.3914  96.6733 15.70872737 78616

JSON: /api/v1/satellites/62556 · /tle

For live sub-satellite position, see the globe view (requires WebGL).

§ Visibility from observer

Set your observer location to see the next 7 days of passes ≥ 10°. The values pass through the URL so the page stays shareable.

No JS? Fill the form by hand. The geolocation button needs JavaScript.